Rome Ciampino, Italy

9:31 AM CEST on October 22, 2017 (GMT +0200)
Ciampino

Weather History for LIRA - December, 2014

Change the Weather History Date:

Friday, December 12, 2014

  Actual Average Record
Temperature  
Mean Temperature 44 °F -  
Max Temperature 55 °F 54 °F 62 °F (2011)
Min Temperature 33 °F 38 °F 30 °F (2012)
Degree Days  
Heating Degree Days 21    
Moisture  
Dew Point 37 °F    
Average Humidity 79    
Maximum Humidity 100    
Minimum Humidity 47    
Precipitation  
Precipitation 0.00 in 0.14 in - ()
Sea Level Pressure  
Sea Level Pressure 30.13 in    
Wind  
Wind Speed 1 mph ()    
Max Wind Speed 5 mph    
Max Gust Speed -    
Visibility 6.1 miles    
Events      
Averages and records for this station are not official NWS values.
T = Trace of Precipitation, MM = Missing Value Source: Averaged Metar Reports

Daily Weather History Graph

Daily Weather History Graph

Search for Another Location

Airport or City:

Trip Planner

Search our weather history database for the weather conditions in past years. The results will help you decide how hot, cold, wet, or windy it might be!

Date:

Astronomy

Dec. 12, 2014 Rise Set
Actual Time 7:27 AM CET 4:39 PM CET
Civil Twilight 6:56 AM CET 5:10 PM CET
Nautical Twilight 6:21 AM CET 5:45 PM CET
Astronomical Twilight 5:47 AM CET 6:19 PM CET
Moon 10:33 PM CET (12/12) 11:09 AM CET (12/12)
Length of Visible Light 10h 14m
Length of Day
9h 11m
Waning Gibbous, 69% of the Moon is Illuminated
Dec 12
Waning Gibbous
Dec 14
Last Quarter
Dec 22
New
Dec 28
First Quarter
Jan 5
Full

Hourly Weather History & Observations

Time (CET) Temp. Windchill Dew Point Humidity Pressure Visibility Wind Dir Wind Speed Gust Speed Precip Events Conditions
12:15 AM 39.2 °F - 37.4 °F 93% 30.06 in - Calm Calm - N/A   Clear
12:45 AM 39.2 °F - 37.4 °F 93% 30.06 in - Calm Calm - N/A   Clear
1:00 AM 39 °F - 37 °F 91% 30.10 in 6 mi Calm Calm - -  
1:15 AM 37.4 °F 33.8 °F 35.6 °F 93% 30.06 in - ENE 4.6 mph - N/A   Clear
1:45 AM 37.4 °F 34.9 °F 37.4 °F 100% 30.06 in - NNE 3.5 mph - N/A   Clear
2:15 AM 37.4 °F - 37.4 °F 100% 30.06 in - NNE 2.3 mph - N/A   Clear
2:45 AM 35.6 °F 31.7 °F 33.8 °F 93% 30.06 in - NE 4.6 mph - N/A   Clear
3:15 AM 37.4 °F 33.8 °F 35.6 °F 93% 30.06 in - NE 4.6 mph - N/A   Clear
3:45 AM 35.6 °F - 33.8 °F 93% 30.06 in - Calm Calm - N/A   Clear
4:00 AM 36 °F - 35 °F 92% 30.10 in 6 mi Calm Calm - -   Clear
4:15 AM 35.6 °F 32.8 °F 33.8 °F 93% 30.06 in - NNE 3.5 mph - N/A   Clear
4:45 AM 35.6 °F 31.7 °F 33.8 °F 93% 30.09 in - ENE 4.6 mph - N/A   Clear
5:15 AM 35.6 °F - 33.8 °F 93% 30.09 in - Calm Calm - N/A   Clear
5:45 AM 35.6 °F - 33.8 °F 93% 30.09 in - Calm Calm - N/A   Clear
6:15 AM 33.8 °F - 32.0 °F 93% 30.09 in - Calm Calm - N/A   Clear
6:45 AM 33.8 °F - 32.0 °F 93% 30.09 in - Calm Calm - N/A   Clear
7:00 AM 34 °F - 32 °F 89% 30.13 in 6 mi Calm Calm - -  
7:15 AM 33.8 °F - 32.0 °F 93% 30.09 in - Calm Calm - N/A   Clear
7:45 AM 33.8 °F - 32.0 °F 93% 30.12 in - Calm Calm - N/A   Clear
8:15 AM 35.6 °F - 33.8 °F 93% 30.12 in - NE 1.2 mph - N/A   Clear
8:45 AM 35.6 °F - 33.8 °F 93% 30.12 in - NE 1.2 mph - N/A   Clear
9:15 AM 39.2 °F - 37.4 °F 93% 30.15 in - Calm Calm - N/A   Clear
9:45 AM 41.0 °F - 35.6 °F 81% 30.15 in - Calm Calm - N/A   Clear
10:00 AM 41 °F - 36 °F 77% 30.19 in 6 mi Calm Calm - -  
10:15 AM 42.8 °F - 37.4 °F 81% 30.15 in - NNE 1.2 mph - N/A   Clear
10:45 AM 42.8 °F - 37.4 °F 81% 30.15 in - NNW 2.3 mph - N/A   Clear
11:15 AM 46.4 °F - 37.4 °F 71% 30.15 in - North 1.2 mph - N/A   Clear
11:45 AM 46.4 °F - 37.4 °F 71% 30.15 in - NNE 1.2 mph - N/A   Clear
12:15 PM 48.2 °F - 33.8 °F 58% 30.15 in - Calm Calm - N/A   Clear
12:45 PM 50.0 °F - 37.4 °F 62% 30.15 in - NNW 1.2 mph - N/A   Clear
12:55 PM 50.0 °F - 37.4 °F 62% 30.15 in - NNW 1.2 mph - N/A   Clear
1:00 PM 50 °F - 38 °F 52% 30.19 in 6 mi NNW 1.2 mph - -  
1:15 PM 51.8 °F - 37.4 °F 58% 30.15 in - WNW 3.5 mph - N/A   Clear
1:45 PM 53.6 °F - 35.6 °F 51% 30.15 in - Calm Calm - N/A   Clear
2:15 PM 53.6 °F - 35.6 °F 51% 30.15 in - NNW 2.3 mph - N/A   Clear
2:45 PM 53.6 °F - 35.6 °F 51% 30.15 in - NNW 1.2 mph - N/A   Clear
3:15 PM 53.6 °F - 33.8 °F 47% 30.15 in - Calm Calm - N/A   Clear
3:45 PM 53.6 °F - 33.8 °F 47% 30.15 in - Calm Calm - N/A   Clear
4:15 PM 53.6 °F - 33.8 °F 47% 30.15 in - Calm Calm - N/A   Clear
4:45 PM 53.6 °F - 35.6 °F 51% 30.15 in - Calm Calm - N/A   Clear
5:15 PM 50.0 °F - 37.4 °F 62% 30.15 in - SSE 2.3 mph - N/A   Clear
5:45 PM 48.2 °F - 39.2 °F 71% 30.15 in - SSE 2.3 mph - N/A   Clear
6:15 PM 46.4 °F - 35.6 °F 66% 30.15 in - South 2.3 mph - N/A   Clear
6:45 PM 44.6 °F - 39.2 °F 81% 30.15 in 6.2 mi ESE 2.3 mph - N/A   Partly Cloudy
7:00 PM 45 °F - 39 °F 74% 30.18 in 6 mi ESE 2.3 mph - -   Scattered Clouds
7:15 PM 44.6 °F 43.1 °F 39.2 °F 81% 30.15 in 6.2 mi ESE 3.5 mph - N/A   Scattered Clouds
7:45 PM 48.2 °F - 42.8 °F 82% 30.18 in 6.2 mi Calm Calm - N/A   Scattered Clouds
8:15 PM 48.2 °F - 42.8 °F 82% 30.18 in 6.2 mi SE 2.3 mph - N/A   Scattered Clouds
8:45 PM 48.2 °F - 42.8 °F 82% 30.18 in 6.2 mi Calm Calm - N/A   Scattered Clouds
9:15 PM 48.2 °F - 42.8 °F 82% 30.18 in 6.2 mi SE 2.3 mph - N/A   Scattered Clouds
9:45 PM 48.2 °F - 44.6 °F 87% 30.18 in 6.2 mi SE 2.3 mph - N/A   Scattered Clouds
10:00 PM 49 °F - 44 °F 76% 30.21 in 6 mi SE 2.3 mph - -   Partly Cloudy
10:15 PM 48.2 °F - 44.6 °F 87% 30.18 in 6.2 mi Calm Calm - N/A   Scattered Clouds
10:45 PM 48.2 °F - 44.6 °F 87% 30.18 in 6.2 mi ESE 3.5 mph - N/A   Scattered Clouds
11:15 PM 48.2 °F - 44.6 °F 87% 30.18 in 6.2 mi ESE 2.3 mph - N/A   Scattered Clouds
11:45 PM 50.0 °F - 44.6 °F 82% 30.18 in 6.2 mi SE 2.3 mph - N/A   Scattered Clouds